Wind_Speed
12 11 12 11 10 10 9 9 9 8 8 8 8 8 8 9 9 9 9 9 8 9 8 7 8 8 9 9 9 9 9 9 8 8 9 8 9 10 10 11 12 12 12
11 12 12 11 10 9 9 9 8 8 8 8 8 8 9 9 10 10 10 9 9 10 9 8 9 9 9 10 10 10 10 10 10 9 8 8 9 10 10 11 12 12 12
10 12 12 12 11 10 9 9 9 9 9 9 9 10 10 10 10 10 11 11 11 11 10 10 10 10 10 11 11 11 10 11 11 11 10 9 9 10 11 11 12 12 12
10 11 11 12 11 10 10 10 10 10 9 9 10 10 11 11 11 11 11 11 11 11 11 10 10 10 10 11 11 11 11 10 11 11 11 11 11 11 12 13 13 12 12
11 11 11 12 12 11 10 10 10 10 10 10 10 11 11 12 12 12 12 12 12 12 12 11 11 11 11 11 11 11 11 11 12 12 12 12 12 13 14 14 14 14 14
11 11 11 11 12 12 11 12 11 11 11 11 11 12 12 12 12 13 13 13 12 12 12 13 12 13 13 13 13 13 13 13 13 13 14 14 14 15 15 14 15 15 15
12 11 12 12 12 12 13 13 12 12 12 12 12 12 12 13 14 14 13 13 13 13 13 13 13 13 13 13 14 14 14 14 14 15 15 15 16 16 16 16 16 16 16
12 12 12 12 13 13 14 14 13 13 13 13 13 13 13 13 14 14 14 14 14 14 15 14 13 13 13 13 14 15 15 15 15 16 16 16 17 17 17 17 17 16 17
12 13 13 14 14 15 14 14 14 14 14 14 14 14 14 15 15 15 15 15 16 16 16 15 15 15 15 15 15 15 15 16 17 17 17 18 18 17 18 18 18 17 17
14 14 14 15 15 14 14 14 14 14 14 14 14 14 15 16 17 17 17 17 17 16 16 16 16 16 16 16 16 16 16 17 17 18 19 19 19 19 19 20 20 20 19
15 15 15 16 16 15 15 16 16 15 15 15 16 16 17 18 18 19 19 19 18 18 18 18 17 17 17 17 17 16 17 18 18 19 19 19 19 20 20 21 21 22 22
16 16 16 17 17 17 17 17 18 18 17 17 18 19 19 19 20 20 20 20 21 20 19 19 19 18 18 19 19 19 19 19 20 20 20 20 21 21 22 22 23 23 23
17 17 17 19 19 18 18 19 19 19 19 19 20 20 20 21 22 23 23 23 22 22 21 20 20 20 20 20 20 20 20 20 21 21 22 22 22 22 23 23 23 24 24
19 18 18 19 20 20 19 19 21 20 21 21 21 21 22 23 23 24 24 24 24 23 22 22 22 22 21 21 21 21 22 22 22 23 23 23 23 23 23 23 24 24 25
20 20 20 21 22 22 21 21 22 22 22 23 23 23 24 24 25 25 25 25 25 24 24 24 23 22 22 22 22 22 23 23 24 24 24 24 24 24 25 25 24 25 25
22 22 23 23 24 24 23 23 23 24 24 25 25 25 25 25 25 26 26 26 26 25 25 24 24 23 23 24 24 24 24 24 24 24 24 24 24 24 24 24 24 24 25
23 23 24 24 25 25 25 25 25 25 26 26 26 27 27 27 26 26 26 26 26 26 25 25 24 24 24 24 24 24 24 24 24 25 25 25 25 24 24 24 24 25 25
24 25 26 25 25 26 25 26 27 27 28 27 27 27 27 27 27 27 27 27 27 26 26 25 24 24 24 25 25 25 24 25 25 26 26 25 25 25 25 25 26 26 26
25 27 27 26 26 26 27 28 28 28 28 28 28 28 28 28 28 28 28 28 27 27 27 26 26 26 26 26 26 25 25 26 27 26 26 26 26 26 26 26 26 26 26
27 27 27 27 28 28 29 29 29 29 29 29 29 29 29 29 29 28 28 28 28 27 27 27 27 27 27 27 27 26 26 27 27 27 27 27 27 27 27 27 27 26 26
27 28 28 29 29 29 29 29 29 29 30 30 29 29 29 29 29 29 29 28 28 28 28 28 28 28 27 27 27 28 28 28 28 28 28 28 28 28 28 27 27 27 27
28 28 29 29 30 30 30 30 31 30 30 30 30 30 31 31 31 31 31 30 29 29 29 29 29 29 29 28 28 28 28 29 29 29 29 29 29 29 28 28 28 29 29
29 29 30 30 30 30 30 31 31 31 31 31 31 31 32 32 32 33 32 31 30 30 30 29 29 29 29 29 29 29 29 30 30 30 30 30 30 29 29 29 29 29 29
32 31 31 30 30 31 32 32 32 32 32 32 32 33 33 33 33 33 32 32 32 31 31 30 29 29 29 29 29 30 30 31 30 30 30 30 30 30 30 29 29 30 29
31 31 32 31 32 33 33 33 33 33 34 34 34 33 33 33 33 33 32 33 32 32 31 30 30 29 30 30 30 30 31 31 30 30 30 30 29 30 30 30 30 29 29
31 32 32 32 32 33 33 33 33 34 33 34 34 34 33 33 33 32 33 32 31 30 30 30 30 30 30 30 30 30 31 31 31 31 30 30 30 30 30 30 30 30 29
Wind_Direction
10 9 4 357 356 359 359 358 359 355 351 351 352 350 351 352 350 343 339 336 332 331 327 320 317 315 312 307 303 301 301 297 294 289 286 286 281 277 271 269 271 274 271
1 356 352 350 350 352 353 354 354 353 348 346 345 342 342 341 340 340 340 336 332 330 325 319 314 313 310 306 302 299 298 297 295 289 288 287 285 285 283 280 279 278 272
348 346 347 349 349 349 347 346 348 348 348 345 339 336 335 333 332 335 335 333 329 328 321 319 311 309 308 305 302 300 299 299 294 289 288 286 286 287 286 286 286 283 278
345 343 342 343 345 344 343 341 343 344 341 338 335 331 330 329 326 327 327 328 326 323 317 316 311 308 308 307 302 298 299 300 299 294 291 286 282 284 286 287 285 284 278
337 337 336 337 335 334 336 336 336 338 337 333 331 327 325 325 325 323 322 322 323 322 320 316 313 311 309 307 302 298 296 297 295 295 295 291 290 290 288 286 284 282 278
331 333 333 332 331 332 330 328 326 327 327 326 326 325 323 323 321 319 320 320 319 320 321 318 314 312 309 306 303 300 297 298 297 294 294 293 292 292 290 285 280 278 277
324 331 333 331 328 327 325 325 323 321 319 320 321 323 323 320 319 317 317 317 316 315 317 316 312 312 311 309 307 304 301 301 298 295 294 292 291 290 288 286 281 277 275
321 323 327 327 326 324 320 320 321 317 316 317 319 319 321 319 316 315 314 314 313 311 311 311 309 308 308 307 307 304 301 298 296 295 294 291 288 288 287 286 284 279 276
323 323 325 325 325 325 320 317 317 314 313 314 315 315 316 317 315 314 312 311 311 310 308 308 308 307 307 305 304 301 298 297 297 297 295 291 289 288 287 285 283 280 277
321 325 324 324 326 327 322 318 315 313 310 310 310 311 313 314 313 313 312 309 308 308 307 307 308 308 308 306 301 296 296 298 298 297 294 292 288 286 285 284 283 282 281
316 319 320 320 321 321 320 318 315 313 311 310 311 309 308 308 308 308 310 308 308 307 306 306 305 306 305 304 303 300 297 297 297 296 296 295 293 291 290 288 286 284 282
309 314 316 316 316 317 317 317 313 312 311 309 309 309 308 306 307 306 306 307 306 303 304 305 303 304 303 303 302 301 300 299 299 299 299 297 296 294 292 289 287 284 282
306 311 314 312 311 311 311 311 311 309 308 306 305 304 304 304 305 306 306 308 306 302 302 300 298 299 300 300 300 301 301 300 299 299 298 298 297 295 293 289 287 285 283
304 307 308 307 306 305 305 305 306 305 304 303 302 301 301 302 303 303 304 305 307 304 302 300 297 296 295 297 297 298 299 298 297 297 296 296 295 294 293 290 288 286 285
301 303 305 304 304 303 303 301 301 302 302 302 300 300 301 301 301 301 302 303 303 303 300 300 298 295 293 294 295 295 297 297 296 296 296 296 294 293 292 290 288 287 285
298 297 298 301 303 302 300 300 302 303 302 301 298 298 300 299 299 299 300 301 302 301 300 300 298 296 295 293 294 295 296 297 297 296 296 295 294 293 293 291 290 289 286
294 293 296 299 301 302 299 298 301 302 301 300 301 302 302 301 300 298 298 299 300 300 298 297 296 295 296 297 295 296 295 297 298 297 296 295 295 294 293 293 291 289 288
292 293 295 299 299 299 298 297 298 300 300 299 300 301 301 301 300 298 297 297 298 299 297 296 294 293 295 296 295 297 297 299 298 297 296 295 294 294 294 293 292 290 288
290 293 295 296 296 296 297 298 298 298 298 298 298 299 300 300 299 298 297 297 297 297 296 295 293 293 293 293 293 294 295 296 296 296 296 295 295 294 293 292 292 290 289
290 290 292 293 294 295 296 297 298 298 298 298 297 297 297 297 297 297 296 295 294 294 294 293 293 292 291 291 292 293 293 294 294 293 294 295 295 294 293 291 290 289 289
289 290 292 292 294 295 296 296 296 296 296 297 296 297 296 296 296 296 295 294 293 292 292 291 291 291 291 291 292 294 294 294 292 291 292 293 293 293 293 291 290 290 288
286 289 291 291 293 294 294 294 294 294 294 295 296 296 295 294 295 296 296 294 293 292 291 291 291 291 291 291 291 293 294 294 293 292 291 291 292 293 292 291 291 292 291
284 286 289 292 292 292 292 292 292 292 293 293 294 294 293 293 294 294 295 295 293 292 292 291 291 291 291 290 290 291 292 293 293 292 292 292 292 293 292 290 290 291 290
287 290 292 291 291 292 291 291 291 292 293 293 292 293 293 293 293 293 292 292 292 291 291 290 288 289 290 290 289 290 291 292 292 291 292 291 292 292 292 291 291 290 288
291 291 292 291 291 292 291 290 291 292 292 293 293 292 293 293 293 292 291 291 290 290 288 288 288 288 288 289 289 290 291 293 292 291 291 291 291 292 292 291 291 290 287
289 291 291 291 291 291 291 291 292 292 292 291 292 293 294 294 294 293 292 290 290 289 288 288 288 288 288 288 289 289 290 291 291 292 293 292 292 292 292 291 291 290 288
Height
5909 5907 5906 5905 5903 5902 5900 5899 5897 5896 5895 5893 5892 5890 5889 5887 5886 5885 5883 5882 5880 5878 5877 5875 5874 5873 5872 5871 5870 5869 5868 5867 5866 5865 5864 5863 5862 5861 5860 5859 5859 5858 5857
5909 5907 5906 5904 5902 5901 5899 5898 5897 5895 5894 5892 5891 5889 5888 5886 5885 5883 5882 5880 5878 5876 5875 5873 5872 5871 5870 5868 5867 5866 5865 5864 5863 5862 5861 5860 5860 5858 5857 5856 5856 5855 5854
5908 5907 5905 5903 5902 5900 5899 5897 5896 5894 5893 5891 5890 5888 5886 5885 5883 5881 5880 5878 5876 5874 5873 5871 5870 5868 5867 5866 5864 5863 5862 5861 5860 5859 5858 5857 5856 5855 5855 5853 5852 5851 5850
5907 5905 5904 5902 5901 5899 5897 5896 5894 5893 5891 5890 5888 5887 5885 5883 5881 5879 5878 5876 5874 5872 5870 5869 5867 5866 5864 5863 5861 5860 5859 5858 5856 5855 5854 5854 5853 5852 5851 5850 5849 5848 5847
5905 5904 5903 5901 5899 5897 5896 5894 5893 5891 5890 5888 5886 5885 5883 5881 5879 5877 5876 5874 5872 5870 5868 5866 5864 5863 5861 5860 5858 5857 5856 5855 5854 5852 5851 5850 5849 5848 5847 5846 5845 5844 5843
5903 5902 5901 5899 5897 5895 5894 5892 5891 5889 5888 5886 5884 5882 5881 5879 5877 5875 5873 5871 5869 5867 5865 5863 5861 5860 5858 5857 5855 5854 5852 5851 5850 5849 5847 5846 5845 5844 5843 5842 5841 5840 5839
5901 5899 5898 5897 5895 5893 5892 5890 5888 5887 5885 5884 5882 5880 5878 5876 5874 5872 5870 5868 5866 5864 5862 5860 5858 5857 5855 5853 5851 5850 5849 5847 5846 5845 5843 5842 5841 5839 5838 5838 5836 5835 5834
5898 5897 5896 5894 5893 5891 5889 5887 5886 5884 5882 5881 5879 5877 5875 5873 5871 5869 5867 5865 5862 5861 5859 5857 5855 5853 5851 5849 5848 5846 5845 5843 5841 5840 5839 5838 5836 5835 5834 5833 5831 5830 5829
5896 5895 5893 5892 5890 5888 5886 5885 5883 5881 5879 5878 5876 5874 5872 5870 5868 5866 5863 5861 5859 5857 5855 5853 5851 5849 5847 5845 5843 5842 5840 5839 5837 5835 5834 5833 5831 5830 5829 5827 5826 5825 5824
5893 5892 5890 5889 5887 5885 5883 5881 5880 5878 5876 5874 5873 5871 5869 5867 5865 5862 5859 5857 5855 5853 5851 5849 5847 5844 5842 5840 5838 5837 5835 5834 5832 5831 5829 5827 5825 5824 5823 5821 5820 5819 5818
5890 5889 5887 5885 5884 5882 5880 5878 5876 5875 5873 5871 5869 5867 5865 5863 5860 5858 5855 5853 5851 5848 5847 5845 5842 5840 5838 5836 5833 5832 5830 5829 5827 5825 5824 5822 5820 5818 5816 5815 5813 5812 5811
5886 5885 5884 5882 5880 5878 5876 5874 5872 5871 5869 5867 5864 5862 5860 5858 5856 5854 5851 5849 5846 5844 5842 5840 5837 5835 5833 5831 5829 5827 5825 5823 5821 5820 5818 5816 5814 5812 5810 5808 5807 5805 5804
5883 5881 5879 5878 5876 5874 5872 5870 5868 5866 5864 5862 5860 5858 5856 5854 5851 5849 5846 5844 5841 5839 5837 5835 5832 5831 5828 5827 5824 5822 5820 5818 5816 5814 5812 5810 5808 5806 5804 5802 5800 5798 5796
5879 5878 5876 5874 5872 5870 5868 5866 5864 5861 5859 5857 5855 5853 5851 5849 5846 5844 5841 5839 5836 5834 5832 5830 5827 5825 5823 5821 5819 5817 5814 5812 5810 5808 5805 5803 5801 5799 5797 5795 5793 5791 5789
5874 5873 5871 5869 5867 5865 5863 5861 5859 5856 5854 5852 5849 5847 5845 5843 5840 5838 5835 5833 5831 5828 5826 5824 5821 5819 5817 5815 5813 5810 5808 5806 5804 5801 5799 5797 5794 5792 5790 5787 5785 5783 5781
5869 5868 5866 5865 5862 5860 5858 5856 5854 5851 5849 5846 5843 5841 5838 5836 5834 5832 5829 5827 5825 5823 5820 5818 5815 5813 5811 5809 5806 5804 5802 5800 5797 5795 5792 5790 5787 5785 5782 5780 5778 5776 5774
5863 5861 5860 5859 5857 5854 5852 5850 5848 5845 5843 5840 5837 5835 5832 5830 5827 5825 5823 5820 5818 5816 5813 5811 5809 5807 5804 5802 5800 5797 5795 5793 5790 5787 5785 5782 5780 5778 5775 5773 5771 5768 5766
5857 5855 5854 5852 5851 5849 5846 5844 5841 5839 5836 5834 5831 5828 5826 5823 5820 5818 5815 5813 5811 5809 5806 5804 5802 5800 5797 5795 5793 5790 5788 5785 5783 5780 5777 5775 5773 5770 5767 5765 5763 5760 5758
5851 5850 5848 5846 5844 5842 5839 5837 5834 5832 5829 5826 5824 5821 5818 5816 5813 5811 5808 5806 5803 5801 5799 5797 5795 5792 5790 5787 5785 5783 5780 5778 5775 5772 5770 5767 5765 5762 5759 5757 5755 5752 5750
5844 5843 5841 5839 5837 5834 5832 5830 5827 5824 5822 5819 5817 5814 5811 5808 5806 5803 5800 5798 5796 5793 5791 5789 5787 5785 5782 5779 5777 5774 5772 5770 5767 5764 5762 5759 5756 5754 5751 5749 5747 5744 5742
5837 5836 5833 5831 5829 5827 5824 5822 5819 5817 5814 5811 5809 5806 5804 5801 5798 5795 5792 5790 5787 5785 5783 5781 5779 5776 5774 5771 5769 5766 5764 5762 5759 5756 5754 5751 5748 5745 5743 5740 5738 5736 5734
5829 5827 5825 5823 5821 5819 5816 5814 5811 5809 5806 5803 5801 5798 5795 5793 5790 5787 5784 5781 5779 5776 5774 5772 5770 5768 5765 5763 5760 5758 5755 5753 5750 5748 5745 5743 5740 5737 5734 5732 5729 5727 5725
5820 5818 5816 5814 5812 5810 5808 5805 5803 5800 5798 5795 5792 5790 5787 5784 5781 5778 5775 5773 5770 5768 5765 5763 5761 5759 5756 5754 5751 5749 5746 5744 5741 5739 5736 5734 5731 5728 5726 5723 5720 5718 5715
5811 5809 5807 5805 5804 5801 5799 5796 5794 5791 5789 5786 5783 5780 5778 5775 5772 5769 5766 5763 5761 5758 5756 5753 5751 5749 5747 5745 5742 5740 5737 5735 5732 5730 5727 5725 5722 5720 5717 5714 5712 5709 5706
5802 5800 5798 5796 5795 5793 5790 5788 5785 5782 5780 5777 5774 5770 5768 5765 5762 5759 5756 5753 5751 5748 5746 5744 5742 5740 5738 5736 5733 5730 5728 5725 5723 5720 5718 5715 5713 5710 5708 5705 5702 5699 5697
5793 5791 5789 5787 5785 5783 5781 5778 5776 5773 5770 5767 5764 5761 5758 5755 5752 5749 5746 5743 5741 5738 5736 5734 5732 5730 5729 5726 5724 5721 5719 5716 5713 5711 5708 5706 5703 5701 5698 5695 5693 5690 5688